This is the latest recevied weather packets stored in our database for station/object JR5YHL-13. If no packets are shown the sender has not sent any weather packets the latest 10 day(s).
| Time | Temp. | Humidity | Pressure | Rain* | Wind** | Luminosity | Snow |
|---|---|---|---|---|---|---|---|
| 1778152271 | 22.22° C | 99% | 1011.5 hPa | 0 mm | - | - | - |
| 1778151673 | 22.22° C | 99% | 1011.5 hPa | 0 mm | - | - | - |
| 1778151076 | 22.22° C | 99% | 1011.3 hPa | 0 mm | - | - | - |
| 1778150478 | 22.22° C | 99% | 1011.3 hPa | 0 mm | - | - | - |
| 1778149880 | 22.22° C | 99% | 1011.3 hPa | 0 mm | - | - | - |
| 1778149282 | 22.22° C | 99% | 1011.3 hPa | 0 mm | - | - | - |
| 1778148684 | 22.22° C | 99% | 1011.2 hPa | 0 mm | - | - | - |
| 1778148087 | 22.22° C | 99% | 1011.2 hPa | 0 mm | - | - | - |
| 1778147489 | 22.22° C | 99% | 1011.1 hPa | 0 mm | - | - | - |
| 1778146891 | 22.22° C | 99% | 1011.1 hPa | 0 mm | - | - | - |
| 1778146293 | 22.78° C | 97% | 1011.1 hPa | 0 mm | - | - | - |
| 1778145695 | 22.78° C | 97% | 1011 hPa | 0 mm | - | - | - |
| 1778145098 | 22.78° C | 96% | 1011 hPa | 0 mm | - | - | - |
| 1778144500 | 23.33° C | 94% | 1011 hPa | 0 mm | - | - | - |
| 1778143902 | 23.33° C | 94% | 1011 hPa | 0 mm | - | - | - |
| 1778143305 | 23.33° C | 94% | 1011 hPa | 0 mm | - | - | - |
| 1778142707 | 23.33° C | 93% | 1011 hPa | 0 mm | - | - | - |
| 1778142109 | 23.33° C | 91% | 1010.9 hPa | 0 mm | - | - | - |
| 1778141511 | 23.33° C | 88% | 1010.9 hPa | 0 mm | - | - | - |
| 1778140913 | 24.44° C | 84% | 1010.8 hPa | 0 mm | - | - | - |
| 1778140315 | 24.44° C | 86% | 1010.8 hPa | 0 mm | - | - | - |
| 1778139718 | 23.33° C | 88% | 1010.9 hPa | 0 mm | - | - | - |
| 1778139120 | 23.89° C | 82% | 1011 hPa | 0 mm | - | - | - |
| 1778138522 | 23.89° C | 81% | 1011 hPa | 0 mm | - | - | - |
| 1778137924 | 24.44° C | 79% | 1010.9 hPa | 0 mm | - | - | - |
* Rain latest hour (hover to see other rain measurements)
** Current wind speed in m/s (hover to see current wind gust speed)